Showing default

MAROC TUBSAT, 27004

Orbit data source: Space-Track

MAROC TUBSAT, 27004 is a payload satellite owned by CRTS (DE) in SSO that was launched on Mon, 10 Dec 2001 UTC via a ZENIT-2 launch vehicle from the Tyuratam Missile And Space Complex (TTMTR). Payload-class satellites include a variety of spacecraft equipped with specific instruments for various scientific and technological missions. These include communications satellites like Starlink; space stations such as the ISS; scientific satellites like the Hubble; Earth observation satellites from companies like Planet Labs, Umbra, and HawkEye 360; GPS; miniature CubeSats for education and research; and military/defense satellites.

Loading next visibility...
Identifier
27004, 2001-056D
Orbit
SSO
Country
Flag of DEDE / GER
Related business
Manufacturer
TUB
Mission
Operational Civil Imaging
Bus & Motor
TUBSAT, Unknown motor
Mass
45 kg wet, 45 kg dry
Launch date (UTC)
2001-12-10 (24 years ago)
Launch vehicle
ZENIT-2
Launch site
Tyuratam Missile And Space Complex (TTMTR)
Object type
Payload
Rocket body
Debris
Shape & HBR
Box, 1.0 m
Radar Cross Section
0.200 m², Medium (>0.1 m² and < 1m²)

Expand to show TLE details & history
Last TLE update: 15 hours ago

TLE from 15 hours ago
0 MAROC TUBSAT
1 27004U 01056D   26073.09246111 -.00000009  00000-0  42519-4 0  9992
2 27004  99.8016 248.1726 0020154  28.5783  92.5532 13.70258228213160
Epoch: 2026-03-14T02:13Z
TLE epoch observation values (Epoch: 2026-03-14T02:13:08.639Z)
Latitude
57.3891°
Longitude
-121.2496°
Altitude
1,008.888 km
Speed
7.352 km/s
True Right ascension
05h 35m 01s
True Declination
57° 14' 17"
Sunlit
Object was in daylight at epoch
Visualization orbit readout
Latitude
Unknown
Longitude
Unknown
Altitude
Unknown
Speed
Unknown
Apparent Right ascension
Unknown
Apparent Declination
Unknown
Sunlit
N/A
Visualization observer readout
Local Sidereal Time
22:06:38
Azimuth
Unknown
Elevation
Unknown
Doppler factor
Unknown
Orbital elements
Apogee altitude
1,010.785 km
Perigee altitude
981.062 km
Semi-major axis
7,374.061 km
Eccentricity
0.00202
Inclination
99.8016°
RAAN
248.1726°
Arg. of periapsis
28.5783°
True anomaly
92.78389°
Mean anomaly
92.5532°
Eccentric anomaly
92.66855°
Mean motion
3.42754 °/min
Orbital period
105.03 mins
BSTAR
0.000042519
Loading maneuver chart data...
Computing Atmospheric mass density...
Loading historical data...
Loading historical data...
Loading historical data...
Loading historical data...
Loading historical data...
Loading historical data...
Loading historical data...

Documentation

Showing up to 5 results
|